Wetterdaten: aktuell Montag, 17.12.2018 11:50
Datum Zeit Temp. I. Temp. 2m Temp. 5cm Feuchte I. Feuchte 2m Luftdruck Regen Wind Richtung Richtung Taupunkt Windchill Windben
17.12.2018 11:50 21,9 C 0,0 C 1,6 C 40 % 4 % 1017,9 hPa 0,0 l/m 5,0 km/h (1 Bft) W 270 -37,2 C -1,6 C 7,3 km/h (2 Bft)
17.12.2018 11:48 21,9 C 0,0 C 1,6 C 40 % 4 % 1017,9 hPa 0,0 l/m 5,3 km/h (1 Bft) W-NW 292 -37,2 C -1,7 C 7,3 km/h (2 Bft)
17.12.2018 11:46 21,9 C 0,0 C 1,6 C 41 % 4 % 1017,9 hPa 0,0 l/m 5,3 km/h (1 Bft) W-NW 292 -37,2 C -1,7 C 7,0 km/h (2 Bft)
17.12.2018 11:44 21,9 C 0,0 C 1,6 C 41 % 4 % 1017,8 hPa 0,0 l/m 5,6 km/h (1 Bft) S 180 -37,2 C -1,9 C 7,0 km/h (2 Bft)
17.12.2018 11:42 21,9 C 0,0 C 1,6 C 40 % 4 % 1017,8 hPa 0,0 l/m 6,0 km/h (2 Bft) N-NW 337 -37,2 C -2,0 C 7,9 km/h (2 Bft)
17.12.2018 11:40 21,9 C 0,0 C 1,6 C 40 % 4 % 1017,8 hPa 0,0 l/m 6,0 km/h (2 Bft) W 270 -37,2 C -2,0 C 7,9 km/h (2 Bft)
17.12.2018 11:38 21,9 C 0,0 C 1,6 C 40 % 4 % 1017,8 hPa 0,0 l/m 5,8 km/h (2 Bft) NW 315 -37,2 C -1,9 C 8,9 km/h (2 Bft)
17.12.2018 11:36 21,9 C 0,0 C 1,6 C 40 % 4 % 1017,8 hPa 0,0 l/m 5,5 km/h (1 Bft) NW 315 -37,2 C -1,8 C 8,9 km/h (2 Bft)
17.12.2018 11:34 21,9 C 0,0 C 1,6 C 40 % 4 % 1017,8 hPa 0,0 l/m 5,0 km/h (1 Bft) NW 315 -37,2 C -1,6 C 8,1 km/h (2 Bft)
17.12.2018 11:32 21,9 C 0,0 C 1,6 C 40 % 4 % 1017,8 hPa 0,0 l/m 4,8 km/h (1 Bft) NW 315 -37,2 C -1,5 C 8,3 km/h (2 Bft)
17.12.2018 11:30 21,9 C 0,0 C 1,6 C 40 % 4 % 1017,8 hPa 0,0 l/m 4,7 km/h (1 Bft) N-NW 337 -37,2 C -1,4 C 8,3 km/h (2 Bft)
17.12.2018 11:28 21,9 C 0,0 C 1,6 C 41 % 4 % 1017,8 hPa 0,0 l/m 4,3 km/h (1 Bft) NW 315 -37,2 C 0,0 C 6,8 km/h (2 Bft)
17.12.2018 11:26 21,9 C 0,0 C 1,6 C 40 % 4 % 1017,8 hPa 0,0 l/m 3,9 km/h (1 Bft) N-NW 337 -37,2 C 0,0 C 6,6 km/h (2 Bft)
17.12.2018 11:24 21,9 C 0,0 C 1,6 C 41 % 4 % 1017,8 hPa 0,0 l/m 2,9 km/h (1 Bft) NW 315 -37,2 C 0,0 C 6,6 km/h (2 Bft)
17.12.2018 11:22 21,9 C 0,0 C 1,6 C 40 % 4 % 1017,8 hPa 0,0 l/m 2,4 km/h (1 Bft) N-NW 337 -37,2 C 0,0 C 6,6 km/h (2 Bft)
17.12.2018 11:20 21,9 C 0,0 C 1,6 C 40 % 4 % 1017,8 hPa 0,0 l/m 1,3 km/h (1 Bft) NW 315 -37,2 C 0,0 C 6,6 km/h (2 Bft)
17.12.2018 11:18 21,9 C 0,0 C 1,6 C 41 % 4 % 1017,8 hPa 0,0 l/m 0,8 km/h (0 Bft) NW 315 -37,2 C 0,0 C 2,5 km/h (1 Bft)
17.12.2018 11:16 21,9 C 0,0 C 1,6 C 41 % 4 % 1017,8 hPa 0,0 l/m 0,5 km/h (0 Bft) W 270 -37,2 C 0,0 C 2,5 km/h (1 Bft)
17.12.2018 11:14 21,9 C 0,0 C 1,6 C 40 % 4 % 1017,8 hPa 0,0 l/m 0,2 km/h (0 Bft) NW 315 -37,2 C 0,0 C 0,0 km/h (0 Bft)
17.12.2018 11:12 21,9 C 0,0 C 1,6 C 41 % 4 % 1017,8 hPa 0,0 l/m 0,3 km/h (0 Bft) NW 315 -37,2 C 0,0 C 0,0 km/h (0 Bft)
17.12.2018 11:10 21,9 C 0,0 C 1,6 C 41 % 4 % 1017,8 hPa 0,0 l/m 0,8 km/h (0 Bft) W-SW 247 -37,2 C 0,0 C 2,5 km/h (1 Bft)
17.12.2018 11:08 21,9 C 0,0 C 1,6 C 41 % 4 % 1017,8 hPa 0,0 l/m 1,0 km/h (0 Bft) SW 225 -37,2 C 0,0 C 2,5 km/h (1 Bft)
17.12.2018 11:06 21,9 C 0,0 C 1,6 C 41 % 4 % 1017,8 hPa 0,0 l/m 1,1 km/h (1 Bft) SW 225 -37,2 C 0,0 C 0,0 km/h (0 Bft)
17.12.2018 11:04 21,8 C 0,0 C 1,6 C 41 % 4 % 1017,9 hPa 0,0 l/m 1,8 km/h (1 Bft) W 270 -37,2 C 0,0 C 0,0 km/h (0 Bft)
17.12.2018 11:02 21,9 C 0,0 C 1,6 C 40 % 4 % 1017,9 hPa 0,0 l/m 2,3 km/h (1 Bft) NW 315 -37,2 C 0,0 C 4,6 km/h (1 Bft)
17.12.2018 11:00 21,8 C 0,0 C 1,6 C 41 % 4 % 1017,9 hPa 0,0 l/m 2,3 km/h (1 Bft) NW 315 -37,2 C 0,0 C 4,6 km/h (1 Bft)
17.12.2018 10:58 21,9 C 0,0 C 1,6 C 40 % 4 % 1017,9 hPa 0,0 l/m 2,3 km/h (1 Bft) NW 315 -37,2 C 0,0 C 4,6 km/h (1 Bft)
17.12.2018 10:56 21,8 C 0,0 C 1,6 C 40 % 4 % 1017,9 hPa 0,0 l/m 2,3 km/h (1 Bft) N-NW 337 -37,2 C 0,0 C 4,6 km/h (1 Bft)
17.12.2018 10:54 21,8 C 0,0 C 1,6 C 40 % 4 % 1017,9 hPa 0,0 l/m 1,6 km/h (1 Bft) N 360 -37,2 C 0,0 C 3,5 km/h (1 Bft)
17.12.2018 10:52 21,8 C 0,0 C 1,6 C 40 % 4 % 1017,9 hPa 0,0 l/m 1,3 km/h (1 Bft) N 360 -37,2 C 0,0 C 3,5 km/h (1 Bft)
17.12.2018 10:50 21,8 C 0,0 C 1,6 C 40 % 4 % 1017,9 hPa 0,0 l/m 0,6 km/h (0 Bft) N-NO 22 -37,2 C 0,0 C 2,7 km/h (1 Bft)
17.12.2018 10:48 21,8 C 0,0 C 1,6 C 40 % 4 % 1017,9 hPa 0,0 l/m 0,5 km/h (0 Bft) N-NO 22 -37,2 C 0,0 C 2,1 km/h (1 Bft)
17.12.2018 10:46 21,8 C 0,0 C 1,6 C 40 % 4 % 1017,9 hPa 0,0 l/m 0,2 km/h (0 Bft) N-NO 22 -37,2 C 0,0 C 2,1 km/h (1 Bft)
17.12.2018 10:44 21,8 C 0,0 C 1,5 C 40 % 4 % 1017,9 hPa 0,0 l/m 0,0 km/h (0 Bft) N 360 -37,2 C 0,0 C 0,0 km/h (0 Bft)
17.12.2018 10:42 21,8 C 0,0 C 1,5 C 40 % 4 % 1017,9 hPa 0,0 l/m 0,8 km/h (0 Bft) O-NO 67 -37,2 C 0,0 C 0,0 km/h (0 Bft)
17.12.2018 10:40 21,8 C 0,0 C 1,5 C 40 % 4 % 1017,9 hPa 0,0 l/m 1,1 km/h (1 Bft) O 90 -37,2 C 0,0 C 0,0 km/h (0 Bft)
17.12.2018 10:38 21,8 C 0,0 C 1,5 C 40 % 4 % 1017,9 hPa 0,0 l/m 1,6 km/h (1 Bft) O-SO 112 -37,2 C 0,0 C 0,0 km/h (0 Bft)
17.12.2018 10:36 21,9 C 0,0 C 1,6 C 40 % 4 % 1017,9 hPa 0,0 l/m 2,3 km/h (1 Bft) S-SO 157 -37,2 C 0,0 C 0,0 km/h (0 Bft)
17.12.2018 10:34 21,8 C 0,0 C 1,6 C 40 % 4 % 1017,9 hPa 0,0 l/m 2,6 km/h (1 Bft) S 180 -37,2 C 0,0 C 3,3 km/h (1 Bft)
17.12.2018 10:32 21,8 C 0,0 C 1,6 C 41 % 4 % 1017,9 hPa 0,0 l/m 2,3 km/h (1 Bft) S 180 -37,2 C 0,0 C 4,1 km/h (1 Bft)
17.12.2018 10:30 21,9 C 0,0 C 1,6 C 41 % 4 % 1017,9 hPa 0,0 l/m 1,9 km/h (1 Bft) S-SO 157 -37,2 C 0,0 C 4,4 km/h (1 Bft)
17.12.2018 10:28 21,8 C 0,0 C 1,6 C 41 % 4 % 1017,9 hPa 0,0 l/m 1,4 km/h (1 Bft) S-SO 157 -37,2 C 0,0 C 5,8 km/h (2 Bft)
17.12.2018 10:26 21,8 C 0,0 C 1,6 C 41 % 4 % 1017,9 hPa 0,0 l/m 1,4 km/h (1 Bft) S 180 -37,2 C 0,0 C 5,8 km/h (2 Bft)
17.12.2018 10:24 21,8 C 0,0 C 1,6 C 41 % 4 % 1017,7 hPa 0,0 l/m 1,9 km/h (1 Bft) S 180 -37,2 C 0,0 C 0,0 km/h (0 Bft)
17.12.2018 10:22 21,8 C 0,0 C 1,6 C 41 % 4 % 1017,7 hPa 0,0 l/m 2,4 km/h (1 Bft) O-SO 112 -37,2 C 0,0 C 0,0 km/h (0 Bft)
17.12.2018 10:20 21,8 C 0,0 C 1,6 C 41 % 4 % 1017,7 hPa 0,0 l/m 3,9 km/h (1 Bft) NW 315 -37,2 C 0,0 C 7,3 km/h (2 Bft)
17.12.2018 10:16 21,8 C 0,0 C 1,6 C 41 % 4 % 1017,7 hPa 0,0 l/m 6,3 km/h (2 Bft) N-NW 337 -37,2 C -2,1 C 7,3 km/h (2 Bft)
17.12.2018 10:14 21,8 C 0,0 C 1,6 C 41 % 4 % 1017,7 hPa 0,0 l/m 6,3 km/h (2 Bft) N-NW 337 -37,2 C -2,1 C 7,3 km/h (2 Bft)
17.12.2018 10:12 21,8 C 0,0 C 1,6 C 41 % 4 % 1017,7 hPa 0,0 l/m 6,9 km/h (2 Bft) N-NO 22 -37,2 C -2,4 C 8,3 km/h (2 Bft)
17.12.2018 10:10 21,8 C 0,0 C 1,6 C 41 % 4 % 1017,7 hPa 0,0 l/m 7,4 km/h (2 Bft) N 360 -37,2 C -2,5 C 8,9 km/h (2 Bft)
17.12.2018 10:08 21,8 C 0,0 C 1,6 C 41 % 4 % 1017,7 hPa 0,0 l/m 7,6 km/h (2 Bft) N 360 -37,2 C -2,6 C 10,4 km/h (2 Bft)
17.12.2018 10:06 21,8 C 0,0 C 1,6 C 41 % 4 % 1017,7 hPa 0,0 l/m 7,4 km/h (2 Bft) N 360 -37,2 C -2,5 C 10,4 km/h (2 Bft)
17.12.2018 10:04 21,8 C 0,0 C 1,6 C 41 % 4 % 1017,4 hPa 0,0 l/m 7,2 km/h (2 Bft) N-NO 22 -37,2 C -2,5 C 9,5 km/h (2 Bft)
17.12.2018 10:02 21,8 C 0,0 C 1,6 C 41 % 4 % 1017,4 hPa 0,0 l/m 6,9 km/h (2 Bft) N-NO 22 -37,2 C -2,4 C 9,8 km/h (2 Bft)
17.12.2018 10:00 21,8 C 0,0 C 1,6 C 41 % 4 % 1017,4 hPa 0,0 l/m 6,6 km/h (2 Bft) N-NO 22 -37,2 C -2,3 C 9,8 km/h (2 Bft)
17.12.2018 09:58 21,8 C 0,0 C 1,6 C 41 % 4 % 1017,4 hPa 0,0 l/m 6,4 km/h (2 Bft) N-NO 22 -37,2 C -2,2 C 9,8 km/h (2 Bft)
17.12.2018 09:56 21,8 C 0,0 C 1,6 C 41 % 4 % 1017,4 hPa 0,0 l/m 6,1 km/h (2 Bft) N 360 -37,2 C -2,1 C 9,7 km/h (2 Bft)
17.12.2018 09:54 21,8 C 0,0 C 1,6 C 41 % 4 % 1017,4 hPa 0,0 l/m 6,0 km/h (2 Bft) N 360 -37,2 C -2,0 C 9,7 km/h (2 Bft)
17.12.2018 09:52 21,8 C 0,0 C 1,6 C 41 % 4 % 1017,4 hPa 0,0 l/m 5,8 km/h (2 Bft) N 360 -37,2 C -1,9 C 8,5 km/h (2 Bft)
17.12.2018 09:50 21,8 C 0,0 C 1,6 C 41 % 4 % 1017,4 hPa 0,0 l/m 5,5 km/h (1 Bft) N-NW 337 -37,2 C -1,8 C 7,7 km/h (2 Bft)
17.12.2018 09:48 21,8 C 0,0 C 1,6 C 41 % 4 % 1017,4 hPa 0,0 l/m 5,3 km/h (1 Bft) N-NW 337 -37,2 C -1,7 C 7,7 km/h (2 Bft)
17.12.2018 09:46 21,8 C 0,0 C 1,6 C 41 % 4 % 1017,4 hPa 0,0 l/m 5,1 km/h (1 Bft) NO 45 -37,2 C -1,6 C 6,6 km/h (2 Bft)
17.12.2018 09:44 21,8 C 0,0 C 1,6 C 41 % 4 % 1017,1 hPa 0,0 l/m 5,1 km/h (1 Bft) N-NO 22 -37,2 C -1,6 C 6,6 km/h (2 Bft)
17.12.2018 09:42 21,8 C 0,0 C 1,6 C 41 % 4 % 1017,1 hPa 0,0 l/m 5,1 km/h (1 Bft) N-NO 22 -37,2 C -1,6 C 7,0 km/h (2 Bft)
17.12.2018 09:40 21,8 C 0,0 C 1,6 C 41 % 4 % 1017,1 hPa 0,0 l/m 5,3 km/h (1 Bft) N-NO 22 -37,2 C -1,7 C 7,5 km/h (2 Bft)
17.12.2018 09:38 21,8 C 0,0 C 1,6 C 41 % 4 % 1017,1 hPa 0,0 l/m 5,1 km/h (1 Bft) N 360 -37,2 C -1,6 C 7,7 km/h (2 Bft)
17.12.2018 09:36 21,8 C 0,0 C 1,6 C 41 % 4 % 1017,1 hPa 0,0 l/m 5,1 km/h (1 Bft) N-NO 22 -37,2 C -1,6 C 8,1 km/h (2 Bft)
17.12.2018 09:34 21,7 C 0,0 C 1,6 C 41 % 4 % 1017,1 hPa 0,0 l/m 4,8 km/h (1 Bft) N-NO 22 -37,2 C -1,5 C 8,1 km/h (2 Bft)
17.12.2018 09:32 21,7 C 0,0 C 1,6 C 41 % 4 % 1017,1 hPa 0,0 l/m 4,5 km/h (1 Bft) NO 45 -37,2 C 0,0 C 6,2 km/h (2 Bft)
17.12.2018 09:30 21,7 C 0,0 C 1,6 C 41 % 4 % 1017,1 hPa 0,0 l/m 4,3 km/h (1 Bft) NO 45 -37,2 C 0,0 C 6,4 km/h (2 Bft)
17.12.2018 09:28 21,7 C 0,0 C 1,6 C 41 % 4 % 1017,1 hPa 0,0 l/m 4,3 km/h (1 Bft) N-NO 22 -37,2 C 0,0 C 6,4 km/h (2 Bft)
17.12.2018 09:26 21,7 C 0,0 C 1,5 C 41 % 4 % 1017,1 hPa 0,0 l/m 4,3 km/h (1 Bft) N-NO 22 -37,2 C 0,0 C 6,0 km/h (2 Bft)
17.12.2018 09:24 21,7 C 0,0 C 1,5 C 41 % 4 % 1016,6 hPa 0,0 l/m 4,3 km/h (1 Bft) N 360 -37,2 C 0,0 C 4,8 km/h (1 Bft)
17.12.2018 09:22 21,7 C 0,0 C 1,5 C 41 % 4 % 1016,6 hPa 0,0 l/m 4,3 km/h (1 Bft) N-NO 22 -37,2 C 0,0 C 5,6 km/h (1 Bft)
17.12.2018 09:20 21,7 C 0,0 C 1,5 C 41 % 4 % 1016,6 hPa 0,0 l/m 4,3 km/h (1 Bft) N-NW 337 -37,2 C 0,0 C 6,8 km/h (2 Bft)
17.12.2018 09:18 21,7 C 0,0 C 1,5 C 41 % 4 % 1016,6 hPa 0,0 l/m 3,7 km/h (1 Bft) N 360 -37,2 C 0,0 C 6,8 km/h (2 Bft)
17.12.2018 09:16 21,7 C 0,0 C 1,5 C 41 % 4 % 1016,6 hPa 0,0 l/m 3,7 km/h (1 Bft) N-NO 22 -37,2 C 0,0 C 6,0 km/h (2 Bft)
17.12.2018 09:14 21,7 C 0,0 C 1,5 C 41 % 4 % 1016,6 hPa 0,0 l/m 3,4 km/h (1 Bft) N 360 -37,2 C 0,0 C 6,0 km/h (2 Bft)
17.12.2018 09:12 21,6 C 0,0 C 1,5 C 41 % 4 % 1016,6 hPa 0,0 l/m 3,2 km/h (1 Bft) N-NW 337 -37,2 C 0,0 C 4,1 km/h (1 Bft)
17.12.2018 09:10 21,6 C 0,0 C 1,5 C 41 % 4 % 1016,6 hPa 0,0 l/m 3,1 km/h (1 Bft) N 360 -37,2 C 0,0 C 3,7 km/h (1 Bft)
17.12.2018 09:08 21,6 C 0,0 C 1,5 C 40 % 4 % 1016,6 hPa 0,0 l/m 3,2 km/h (1 Bft) N-NW 337 -37,2 C 0,0 C 4,8 km/h (1 Bft)
17.12.2018 09:06 21,6 C 0,0 C 1,5 C 40 % 4 % 1016,6 hPa 0,0 l/m 3,2 km/h (1 Bft) N 360 -37,2 C 0,0 C 4,8 km/h (1 Bft)
17.12.2018 09:04 21,6 C 0,0 C 1,5 C 40 % 4 % 1016,4 hPa 0,0 l/m 3,1 km/h (1 Bft) N 360 -37,2 C 0,0 C 5,0 km/h (1 Bft)
17.12.2018 09:02 21,6 C 0,0 C 1,5 C 40 % 4 % 1016,4 hPa 0,0 l/m 2,9 km/h (1 Bft) N-NW 337 -37,2 C 0,0 C 5,0 km/h (1 Bft)
17.12.2018 09:00 21,6 C 0,0 C 1,5 C 40 % 4 % 1016,4 hPa 0,0 l/m 2,7 km/h (1 Bft) N 360 -37,2 C 0,0 C 3,9 km/h (1 Bft)
17.12.2018 08:58 21,6 C 0,0 C 1,5 C 40 % 4 % 1016,4 hPa 0,0 l/m 2,7 km/h (1 Bft) N-NW 337 -37,2 C 0,0 C 4,4 km/h (1 Bft)
17.12.2018 08:56 21,6 C 0,0 C 1,5 C 41 % 4 % 1016,4 hPa 0,0 l/m 2,6 km/h (1 Bft) N-NW 337 -37,2 C 0,0 C 4,4 km/h (1 Bft)
17.12.2018 08:54 21,6 C 0,0 C 1,5 C 41 % 4 % 1016,4 hPa 0,0 l/m 2,1 km/h (1 Bft) N-NW 337 -37,2 C 0,0 C 3,1 km/h (1 Bft)
17.12.2018 08:52 21,6 C 0,0 C 1,5 C 40 % 4 % 1016,4 hPa 0,0 l/m 1,0 km/h (0 Bft) N 360 -37,2 C 0,0 C 3,1 km/h (1 Bft)
17.12.2018 08:50 21,6 C 0,0 C 1,5 C 40 % 4 % 1016,4 hPa 0,0 l/m 1,0 km/h (0 Bft) N 360 -37,2 C 0,0 C 3,1 km/h (1 Bft)
17.12.2018 08:48 21,5 C 0,0 C 1,5 C 40 % 4 % 1016,4 hPa 0,0 l/m 0,8 km/h (0 Bft) N-NO 22 -37,2 C 0,0 C 2,7 km/h (1 Bft)
17.12.2018 08:46 21,5 C 0,0 C 1,5 C 40 % 4 % 1016,4 hPa 0,0 l/m 0,3 km/h (0 Bft) NO 45 -37,2 C 0,0 C 2,5 km/h (1 Bft)
17.12.2018 08:44 21,5 C 0,0 C 1,5 C 40 % 4 % 1016,1 hPa 0,0 l/m 0,0 km/h (0 Bft) NO 45 -37,2 C 0,0 C 0,0 km/h (0 Bft)
17.12.2018 08:42 21,5 C 0,0 C 1,5 C 40 % 4 % 1016,1 hPa 0,0 l/m 0,0 km/h (0 Bft) N 360 -37,2 C 0,0 C 0,0 km/h (0 Bft)
17.12.2018 08:40 21,5 C 0,0 C 1,5 C 40 % 4 % 1016,1 hPa 0,0 l/m 0,0 km/h (0 Bft) N-NO 22 -37,2 C 0,0 C 0,0 km/h (0 Bft)
17.12.2018 08:38 21,5 C 0,0 C 1,5 C 40 % 4 % 1016,1 hPa 0,0 l/m 0,0 km/h (0 Bft) N-NO 22 -37,2 C 0,0 C 0,0 km/h (0 Bft)
17.12.2018 08:36 21,4 C 0,0 C 1,5 C 40 % 4 % 1016,1 hPa 0,0 l/m 0,0 km/h (0 Bft) N-NO 22 -37,2 C 0,0 C 0,0 km/h (0 Bft)
17.12.2018 08:34 21,4 C 0,0 C 1,5 C 40 % 4 % 1016,1 hPa 0,0 l/m 0,2 km/h (0 Bft) N-NO 22 -37,2 C 0,0 C 0,0 km/h (0 Bft)
17.12.2018 08:32 21,5 C 0,0 C 1,5 C 40 % 4 % 1016,1 hPa 0,0 l/m 0,2 km/h (0 Bft) O 90 -37,2 C 0,0 C 0,0 km/h (0 Bft)
17.12.2018 08:30 21,5 C 0,0 C 1,5 C 40 % 4 % 1016,1 hPa 0,0 l/m 0,5 km/h (0 Bft) N 360 -37,2 C 0,0 C 0,0 km/h (0 Bft)
17.12.2018 08:28 21,6 C 0,0 C 1,5 C 40 % 4 % 1016,1 hPa 0,0 l/m 1,1 km/h (1 Bft) N-NW 337 -37,2 C 0,0 C 0,0 km/h (0 Bft)
17.12.2018 08:22 21,6 C 0,0 C 1,5 C 40 % 4 % 1015,6 hPa 0,0 l/m 2,1 km/h (1 Bft) NW 315 -37,2 C 0,0 C 0,0 km/h (0 Bft)
17.12.2018 08:20 21,6 C -4,3 C 1,5 C 40 % 88 % 1015,6 hPa 0,0 l/m 3,4 km/h (1 Bft) N-NW 337 -6,0 C -4,3 C 3,7 km/h (1 Bft)
17.12.2018 08:18 21,6 C -4,3 C 1,5 C 40 % 88 % 1015,6 hPa 0,0 l/m 3,7 km/h (1 Bft) N-NO 22 -6,0 C -4,3 C 4,6 km/h (1 Bft)
17.12.2018 08:16 21,6 C -4,3 C 1,5 C 40 % 88 % 1015,6 hPa 0,0 l/m 3,7 km/h (1 Bft) NO 45 -6,0 C -4,3 C 5,4 km/h (1 Bft)
17.12.2018 08:14 21,6 C -4,3 C 1,5 C 40 % 88 % 1015,6 hPa 0,0 l/m 3,7 km/h (1 Bft) N-NO 22 -6,0 C -4,3 C 5,4 km/h (1 Bft)
17.12.2018 08:12 21,6 C -4,3 C 1,5 C 40 % 88 % 1015,6 hPa 0,0 l/m 3,7 km/h (1 Bft) NO 45 -6,0 C -4,3 C 4,8 km/h (1 Bft)
17.12.2018 08:10 21,6 C -4,3 C 1,5 C 40 % 88 % 1015,6 hPa 0,0 l/m 3,9 km/h (1 Bft) NO 45 -6,0 C -4,3 C 4,8 km/h (1 Bft)
17.12.2018 08:08 21,5 C -4,3 C 1,5 C 40 % 88 % 1015,6 hPa 0,0 l/m 4,0 km/h (1 Bft) NO 45 -6,0 C -4,3 C 4,4 km/h (1 Bft)
17.12.2018 08:06 21,5 C -4,3 C 1,5 C 40 % 88 % 1015,6 hPa 0,0 l/m 4,2 km/h (1 Bft) N-NO 22 -6,0 C -4,3 C 5,2 km/h (1 Bft)
17.12.2018 08:04 21,5 C -4,3 C 1,5 C 40 % 88 % 1015,4 hPa 0,0 l/m 4,2 km/h (1 Bft) N-NO 22 -6,0 C -4,3 C 5,2 km/h (1 Bft)
17.12.2018 08:02 21,5 C -4,3 C 1,5 C 40 % 88 % 1015,4 hPa 0,0 l/m 4,2 km/h (1 Bft) NO 45 -6,0 C -4,3 C 5,2 km/h (1 Bft)
17.12.2018 08:00 21,5 C -4,3 C 1,5 C 40 % 88 % 1015,4 hPa 0,0 l/m 4,0 km/h (1 Bft) NO 45 -6,0 C -4,3 C 5,2 km/h (1 Bft)
17.12.2018 07:58 21,5 C -4,3 C 1,5 C 40 % 88 % 1015,4 hPa 0,0 l/m 4,0 km/h (1 Bft) N-NO 22 -6,0 C -4,3 C 5,4 km/h (1 Bft)
17.12.2018 07:56 21,5 C -4,3 C 1,5 C 40 % 88 % 1015,4 hPa 0,0 l/m 4,2 km/h (1 Bft) N-NO 22 -6,0 C -4,3 C 6,0 km/h (2 Bft)
17.12.2018 07:54 21,5 C -4,3 C 1,5 C 41 % 88 % 1015,4 hPa 0,0 l/m 3,9 km/h (1 Bft) N 360 -6,0 C -4,3 C 6,0 km/h (2 Bft)
17.12.2018 07:52 21,5 C -4,3 C 1,5 C 41 % 88 % 1015,4 hPa 0,0 l/m 3,7 km/h (1 Bft) N-NO 22 -6,0 C -4,3 C 5,2 km/h (1 Bft)
17.12.2018 07:50 21,5 C -4,3 C 1,5 C 41 % 88 % 1015,4 hPa 0,0 l/m 2,9 km/h (1 Bft) N 360 -6,0 C -4,3 C 5,4 km/h (1 Bft)
17.12.2018 07:48 21,5 C -4,3 C 1,5 C 41 % 88 % 1015,4 hPa 0,0 l/m 2,4 km/h (1 Bft) N 360 -6,0 C -4,3 C 7,5 km/h (2 Bft)
17.12.2018 07:46 21,5 C -4,3 C 1,5 C 41 % 88 % 1015,4 hPa 0,0 l/m 1,8 km/h (1 Bft) N 360 -6,0 C -4,3 C 7,5 km/h (2 Bft)
17.12.2018 07:44 21,5 C -4,3 C 1,5 C 41 % 88 % 1015,0 hPa 0,0 l/m 1,1 km/h (1 Bft) N-NW 337 -6,0 C -4,3 C 3,1 km/h (1 Bft)
17.12.2018 07:42 21,5 C -4,3 C 1,5 C 41 % 88 % 1015,0 hPa 0,0 l/m 1,1 km/h (1 Bft) N-NW 337 -6,0 C -4,3 C 2,9 km/h (1 Bft)
17.12.2018 07:40 21,5 C -4,3 C 1,5 C 41 % 88 % 1015,0 hPa 0,0 l/m 1,8 km/h (1 Bft) NW 315 -6,0 C -4,3 C 0,0 km/h (0 Bft)
17.12.2018 07:38 21,5 C -4,3 C 1,5 C 41 % 88 % 1015,0 hPa 0,0 l/m 1,9 km/h (1 Bft) N 360 -6,0 C -4,3 C 0,0 km/h (0 Bft)
17.12.2018 07:36 21,5 C -4,3 C 1,5 C 41 % 88 % 1015,0 hPa 0,0 l/m 1,9 km/h (1 Bft) N 360 -6,0 C -4,3 C 2,1 km/h (1 Bft)
17.12.2018 07:34 21,5 C -4,3 C 1,5 C 41 % 88 % 1015,0 hPa 0,0 l/m 1,9 km/h (1 Bft) N-NO 22 -6,0 C -4,3 C 3,5 km/h (1 Bft)
17.12.2018 07:32 21,5 C -4,3 C 1,5 C 41 % 88 % 1015,0 hPa 0,0 l/m 2,1 km/h (1 Bft) N-NO 22 -6,0 C -4,3 C 4,4 km/h (1 Bft)
17.12.2018 07:30 21,4 C -4,3 C 1,5 C 41 % 88 % 1015,0 hPa 0,0 l/m 2,1 km/h (1 Bft) N-NO 22 -6,0 C -4,3 C 4,4 km/h (1 Bft)
17.12.2018 07:28 21,4 C -4,3 C 1,5 C 41 % 88 % 1015,0 hPa 0,0 l/m 2,3 km/h (1 Bft) N 360 -6,0 C -4,3 C 2,3 km/h (1 Bft)
17.12.2018 07:26 21,5 C -4,3 C 1,5 C 41 % 88 % 1015,0 hPa 0,0 l/m 2,3 km/h (1 Bft) N 360 -6,0 C -4,3 C 2,9 km/h (1 Bft)
17.12.2018 07:24 21,4 C -4,3 C 1,5 C 41 % 88 % 1014,9 hPa 0,0 l/m 2,3 km/h (1 Bft) N-NO 22 -6,0 C -4,3 C 4,8 km/h (1 Bft)
17.12.2018 07:22 21,4 C -4,3 C 1,5 C 41 % 88 % 1014,9 hPa 0,0 l/m 1,1 km/h (1 Bft) N-NO 22 -6,0 C -4,3 C 4,8 km/h (1 Bft)
17.12.2018 07:20 21,4 C -4,3 C 1,5 C 41 % 88 % 1014,9 hPa 0,0 l/m 1,1 km/h (1 Bft) N-NO 22 -6,0 C -4,3 C 4,8 km/h (1 Bft)
17.12.2018 07:18 21,4 C -4,3 C 1,5 C 41 % 88 % 1014,9 hPa 0,0 l/m 0,5 km/h (0 Bft) N-NO 22 -6,0 C -4,3 C 2,3 km/h (1 Bft)
17.12.2018 07:16 21,4 C -4,3 C 1,5 C 41 % 88 % 1014,9 hPa 0,0 l/m 0,8 km/h (0 Bft) N-NW 337 -6,0 C -4,3 C 1,9 km/h (1 Bft)
17.12.2018 07:14 21,4 C -4,3 C 1,5 C 41 % 88 % 1014,9 hPa 0,0 l/m 0,8 km/h (0 Bft) N-NW 337 -6,0 C -4,3 C 1,9 km/h (1 Bft)
17.12.2018 07:12 21,4 C -4,3 C 1,5 C 41 % 88 % 1014,9 hPa 0,0 l/m 0,6 km/h (0 Bft) N-NW 337 -6,0 C -4,3 C 0,0 km/h (0 Bft)
17.12.2018 07:10 21,4 C -4,3 C 1,5 C 41 % 88 % 1014,9 hPa 0,0 l/m 0,6 km/h (0 Bft) NW 315 -6,0 C -4,3 C 0,0 km/h (0 Bft)
17.12.2018 07:08 21,4 C -4,3 C 1,5 C 41 % 88 % 1014,9 hPa 0,0 l/m 0,6 km/h (0 Bft) N-NW 337 -6,0 C -4,3 C 2,5 km/h (1 Bft)
17.12.2018 07:06 21,4 C -4,3 C 1,5 C 41 % 88 % 1014,9 hPa 0,0 l/m 0,3 km/h (0 Bft) N-NO 22 -6,0 C -4,3 C 2,5 km/h (1 Bft)
17.12.2018 07:04 21,4 C -4,3 C 1,5 C 41 % 88 % 1014,6 hPa 0,0 l/m 0,0 km/h (0 Bft) N 360 -6,0 C -4,3 C 0,0 km/h (0 Bft)
17.12.2018 07:02 21,4 C -4,3 C 1,5 C 41 % 88 % 1014,6 hPa 0,0 l/m 0,0 km/h (0 Bft) O-NO 67 -6,0 C -4,3 C 0,0 km/h (0 Bft)
17.12.2018 07:00 21,4 C -4,3 C 1,5 C 41 % 88 % 1014,6 hPa 0,0 l/m 0,0 km/h (0 Bft) SO 135 -6,0 C -4,3 C 0,0 km/h (0 Bft)
17.12.2018 06:58 21,4 C -4,3 C 1,5 C 41 % 88 % 1014,6 hPa 0,0 l/m 0,5 km/h (0 Bft) NO 45 -6,0 C -4,3 C 0,0 km/h (0 Bft)
17.12.2018 06:56 21,4 C -4,3 C 1,5 C 41 % 88 % 1014,6 hPa 0,0 l/m 0,8 km/h (0 Bft) SO 135 -6,0 C -4,3 C 0,0 km/h (0 Bft)
17.12.2018 06:54 21,4 C -4,3 C 1,5 C 41 % 88 % 1014,6 hPa 0,0 l/m 1,3 km/h (1 Bft) O-NO 67 -6,0 C -4,3 C 0,0 km/h (0 Bft)
17.12.2018 06:52 21,4 C -4,3 C 1,5 C 41 % 88 % 1014,6 hPa 0,0 l/m 1,4 km/h (1 Bft) S-SO 157 -6,0 C -4,3 C 2,5 km/h (1 Bft)
17.12.2018 06:50 21,4 C -4,3 C 1,5 C 41 % 88 % 1014,6 hPa 0,0 l/m 1,8 km/h (1 Bft) SO 135 -6,0 C -4,3 C 3,5 km/h (1 Bft)
17.12.2018 06:48 21,4 C -4,3 C 1,5 C 41 % 88 % 1014,6 hPa 0,0 l/m 1,8 km/h (1 Bft) S-SO 157 -6,0 C -4,3 C 3,5 km/h (1 Bft)
17.12.2018 06:46 21,4 C -4,3 C 1,5 C 41 % 88 % 1014,6 hPa 0,0 l/m 1,4 km/h (1 Bft) S-SO 157 -6,0 C -4,3 C 3,3 km/h (1 Bft)
17.12.2018 06:44 21,4 C -4,3 C 1,5 C 41 % 88 % 1014,4 hPa 0,0 l/m 1,4 km/h (1 Bft) S-SO 157 -6,0 C -4,3 C 3,3 km/h (1 Bft)
17.12.2018 06:42 21,4 C -4,3 C 1,5 C 41 % 88 % 1014,4 hPa 0,0 l/m 1,6 km/h (1 Bft) S-SW 202 -6,0 C -4,3 C 2,1 km/h (1 Bft)
17.12.2018 06:40 21,4 C -4,3 C 1,5 C 41 % 88 % 1014,4 hPa 0,0 l/m 1,6 km/h (1 Bft) SO 135 -6,0 C -4,3 C 3,7 km/h (1 Bft)
17.12.2018 06:38 21,4 C -4,3 C 1,5 C 41 % 88 % 1014,4 hPa 0,0 l/m 1,1 km/h (1 Bft) SO 135 -6,0 C -4,3 C 3,7 km/h (1 Bft)
17.12.2018 06:36 21,2 C -4,3 C 1,5 C 41 % 88 % 1014,4 hPa 0,0 l/m 1,1 km/h (1 Bft) SO 135 -6,0 C -4,3 C 3,7 km/h (1 Bft)
17.12.2018 06:34 21,4 C -4,3 C 1,5 C 41 % 88 % 1014,4 hPa 0,0 l/m 0,8 km/h (0 Bft) SO 135 -6,0 C -4,3 C 3,7 km/h (1 Bft)
17.12.2018 06:32 21,4 C -4,3 C 1,5 C 41 % 88 % 1014,4 hPa 0,0 l/m 0,5 km/h (0 Bft) O-SO 112 -6,0 C -4,3 C 3,7 km/h (1 Bft)
17.12.2018 06:30 21,2 C -4,3 C 1,5 C 41 % 88 % 1014,4 hPa 0,0 l/m 0,0 km/h (0 Bft) SO 135 -6,0 C -4,3 C 0,0 km/h (0 Bft)
17.12.2018 06:28 21,4 C -4,3 C 1,5 C 41 % 88 % 1014,4 hPa 0,0 l/m 0,3 km/h (0 Bft) O-NO 67 -6,0 C -4,3 C 0,0 km/h (0 Bft)
17.12.2018 06:26 21,2 C -4,3 C 1,5 C 41 % 88 % 1014,4 hPa 0,0 l/m 0,3 km/h (0 Bft) O 90 -6,0 C -4,3 C 0,0 km/h (0 Bft)
17.12.2018 06:24 21,2 C -4,3 C 1,5 C 41 % 88 % 1014,2 hPa 0,0 l/m 0,3 km/h (0 Bft) O-NO 67 -6,0 C -4,3 C 0,0 km/h (0 Bft)
17.12.2018 06:22 21,2 C -4,3 C 1,5 C 41 % 88 % 1014,2 hPa 0,0 l/m 0,3 km/h (0 Bft) SO 135 -6,0 C -4,3 C 0,0 km/h (0 Bft)
17.12.2018 06:20 21,2 C -4,3 C 1,5 C 41 % 88 % 1014,2 hPa 0,0 l/m 0,3 km/h (0 Bft) S-SO 157 -6,0 C -4,3 C 2,3 km/h (1 Bft)
17.12.2018 06:18 21,2 C -4,3 C 1,5 C 41 % 88 % 1014,2 hPa 0,0 l/m 0,3 km/h (0 Bft) SO 135 -6,0 C -4,3 C 2,3 km/h (1 Bft)
17.12.2018 06:16 21,3 C -4,3 C 1,5 C 41 % 88 % 1014,2 hPa 0,0 l/m 0,0 km/h (0 Bft) O-NO 67 -6,0 C -4,3 C 0,0 km/h (0 Bft)
17.12.2018 06:14 21,3 C -4,3 C 1,5 C 41 % 88 % 1014,2 hPa 0,0 l/m 0,0 km/h (0 Bft) O-NO 67 -6,0 C -4,3 C 0,0 km/h (0 Bft)
17.12.2018 06:12 21,3 C -4,3 C 1,5 C 41 % 88 % 1014,2 hPa 0,0 l/m 2,4 km/h (1 Bft) N-NW 337 -6,0 C -4,3 C 0,0 km/h (0 Bft)
17.12.2018 06:10 21,3 C -4,3 C 1,5 C 41 % 88 % 1014,2 hPa 0,0 l/m 2,4 km/h (1 Bft) N-NW 337 -6,0 C -4,3 C 0,0 km/h (0 Bft)
17.12.2018 06:08 21,2 C -4,3 C 1,5 C 41 % 88 % 1014,2 hPa 0,0 l/m 2,4 km/h (1 Bft) N-NW 337 -6,0 C -4,3 C 0,0 km/h (0 Bft)
17.12.2018 06:06 21,2 C -4,3 C 1,5 C 41 % 88 % 1014,2 hPa 0,0 l/m 2,4 km/h (1 Bft) N-NW 337 -6,0 C -4,3 C 0,0 km/h (0 Bft)
17.12.2018 06:04 21,2 C -4,3 C 1,5 C 41 % 88 % 1014,0 hPa 0,0 l/m 2,4 km/h (1 Bft) N-NW 337 -6,0 C -4,3 C 0,0 km/h (0 Bft)
17.12.2018 06:02 21,2 C -4,3 C 1,5 C 41 % 88 % 1014,0 hPa 0,0 l/m 2,4 km/h (1 Bft) N-NW 337 -6,0 C -4,3 C 1,9 km/h (1 Bft)
17.12.2018 06:00 21,2 C -4,3 C 1,5 C 41 % 88 % 1014,0 hPa 0,0 l/m 2,7 km/h (1 Bft) N-NW 337 -6,0 C -4,3 C 3,9 km/h (1 Bft)
17.12.2018 05:58 21,2 C -4,3 C 1,5 C 41 % 88 % 1014,0 hPa 0,0 l/m 2,7 km/h (1 Bft) N-NW 337 -6,0 C -4,3 C 3,9 km/h (1 Bft)
17.12.2018 05:56 21,2 C -4,3 C 1,5 C 41 % 88 % 1014,0 hPa 0,0 l/m 2,3 km/h (1 Bft) N-NW 337 -6,0 C -4,3 C 3,1 km/h (1 Bft)
17.12.2018 05:54 21,2 C -4,3 C 1,5 C 41 % 88 % 1014,0 hPa 0,0 l/m 1,9 km/h (1 Bft) N-NW 337 -6,0 C -4,3 C 3,5 km/h (1 Bft)
17.12.2018 05:52 21,2 C -4,3 C 1,5 C 41 % 88 % 1014,0 hPa 0,0 l/m 1,4 km/h (1 Bft) N-NO 22 -6,0 C -4,3 C 5,0 km/h (1 Bft)
17.12.2018 05:50 21,2 C -4,3 C 1,5 C 41 % 88 % 1014,0 hPa 0,0 l/m 0,8 km/h (0 Bft) N 360 -6,0 C -4,3 C 5,0 km/h (1 Bft)
17.12.2018 05:48 21,2 C -4,3 C 1,5 C 41 % 88 % 1014,0 hPa 0,0 l/m 0,2 km/h (0 Bft) N-NW 337 -6,0 C -4,3 C 1,9 km/h (1 Bft)
17.12.2018 05:46 21,2 C -4,3 C 1,5 C 41 % 88 % 1014,0 hPa 0,0 l/m 0,3 km/h (0 Bft) N-NW 337 -6,0 C -4,3 C 0,0 km/h (0 Bft)
17.12.2018 05:44 21,2 C -4,3 C 1,5 C 41 % 88 % 1013,6 hPa 0,0 l/m 0,3 km/h (0 Bft) N-NW 337 -6,0 C -4,3 C 0,0 km/h (0 Bft)
17.12.2018 05:42 21,2 C -4,3 C 1,5 C 41 % 88 % 1013,6 hPa 0,0 l/m 0,3 km/h (0 Bft) W-SW 247 -6,0 C -4,3 C 0,0 km/h (0 Bft)
17.12.2018 05:40 21,1 C -4,3 C 1,5 C 41 % 88 % 1013,6 hPa 0,0 l/m 0,3 km/h (0 Bft) W-SW 247 -6,0 C -4,3 C 0,0 km/h (0 Bft)
17.12.2018 05:38 21,1 C -4,3 C 1,5 C 41 % 88 % 1013,6 hPa 0,0 l/m 0,3 km/h (0 Bft) W-SW 247 -6,0 C -4,3 C 2,1 km/h (1 Bft)
17.12.2018 05:36 21,1 C -4,3 C 1,5 C 41 % 88 % 1013,6 hPa 0,0 l/m 0,0 km/h (0 Bft) SW 225 -6,0 C -4,3 C 2,1 km/h (1 Bft)
17.12.2018 05:34 21,1 C -4,3 C 1,5 C 41 % 88 % 1013,6 hPa 0,0 l/m 0,0 km/h (0 Bft) SW 225 -6,0 C -4,3 C 0,0 km/h (0 Bft)
17.12.2018 05:32 21,1 C -4,3 C 1,5 C 41 % 88 % 1013,6 hPa 0,0 l/m 0,3 km/h (0 Bft) N-NW 337 -6,0 C -4,3 C 0,0 km/h (0 Bft)
17.12.2018 05:30 21,0 C -4,3 C 1,5 C 41 % 88 % 1013,6 hPa 0,0 l/m 0,8 km/h (0 Bft) NO 45 -6,0 C -4,3 C 0,0 km/h (0 Bft)
17.12.2018 05:28 21,0 C -4,3 C 1,5 C 41 % 88 % 1013,6 hPa 0,0 l/m 1,1 km/h (1 Bft) NO 45 -6,0 C -4,3 C 0,0 km/h (0 Bft)
17.12.2018 05:26 21,0 C -4,3 C 1,5 C 41 % 88 % 1013,6 hPa 0,0 l/m 1,1 km/h (1 Bft) N 360 -6,0 C -4,3 C 1,9 km/h (1 Bft)
17.12.2018 05:24 21,0 C -4,3 C 1,5 C 41 % 88 % 1013,6 hPa 0,0 l/m 1,1 km/h (1 Bft) NO 45 -6,0 C -4,3 C 2,1 km/h (1 Bft)
17.12.2018 05:22 21,0 C -4,3 C 1,5 C 41 % 88 % 1013,6 hPa 0,0 l/m 1,0 km/h (0 Bft) O-NO 67 -6,0 C -4,3 C 2,5 km/h (1 Bft)
17.12.2018 05:20 21,0 C -4,3 C 1,5 C 41 % 88 % 1013,6 hPa 0,0 l/m 0,5 km/h (0 Bft) O-NO 67 -6,0 C -4,3 C 2,5 km/h (1 Bft)
17.12.2018 05:18 20,9 C -4,3 C 1,5 C 41 % 88 % 1013,6 hPa 0,0 l/m 0,5 km/h (0 Bft) O-NO 67 -6,0 C -4,3 C 2,5 km/h (1 Bft)
17.12.2018 05:16 20,9 C -4,3 C 1,5 C 41 % 88 % 1013,6 hPa 0,0 l/m 0,5 km/h (0 Bft) NO 45 -6,0 C -4,3 C 2,1 km/h (1 Bft)
17.12.2018 05:14 20,9 C -4,3 C 1,5 C 41 % 88 % 1013,6 hPa 0,0 l/m 0,6 km/h (0 Bft) O-NO 67 -6,0 C -4,3 C 2,1 km/h (1 Bft)
17.12.2018 05:12 20,8 C -4,3 C 1,5 C 41 % 88 % 1013,6 hPa 0,0 l/m 0,6 km/h (0 Bft) O-NO 67 -6,0 C -4,3 C 0,0 km/h (0 Bft)
17.12.2018 05:10 20,8 C -4,3 C 1,5 C 41 % 88 % 1013,6 hPa 0,0 l/m 0,8 km/h (0 Bft) O-SO 112 -6,0 C -4,3 C 1,9 km/h (1 Bft)
17.12.2018 05:08 20,8 C -4,3 C 1,5 C 41 % 88 % 1013,6 hPa 0,0 l/m 0,8 km/h (0 Bft) O-NO 67 -6,0 C -4,3 C 1,9 km/h (1 Bft)
17.12.2018 05:06 20,8 C -4,3 C 1,5 C 41 % 88 % 1013,6 hPa 0,0 l/m 0,8 km/h (0 Bft) O-NO 67 -6,0 C -4,3 C 1,9 km/h (1 Bft)
17.12.2018 05:04 20,8 C -4,3 C 1,5 C 41 % 88 % 1013,4 hPa 0,0 l/m 1,3 km/h (1 Bft) O-SO 112 -6,0 C -4,3 C 1,9 km/h (1 Bft)
17.12.2018 05:01 20,8 C -4,3 C 1,5 C 41 % 88 % 1013,4 hPa 0,0 l/m 1,4 km/h (1 Bft) S-SO 157 -6,0 C -4,3 C 1,9 km/h (1 Bft)
17.12.2018 05:00 20,8 C -4,3 C 1,5 C 41 % 88 % 1013,4 hPa 0,0 l/m 1,9 km/h (1 Bft) S-SO 157 -6,0 C -4,3 C 2,9 km/h (1 Bft)
17.12.2018 04:58 20,8 C -4,3 C 1,5 C 41 % 88 % 1013,4 hPa 0,0 l/m 2,3 km/h (1 Bft) SO 135 -6,0 C -4,3 C 2,7 km/h (1 Bft)
17.12.2018 04:56 20,8 C -4,3 C 1,5 C 41 % 88 % 1013,4 hPa 0,0 l/m 2,3 km/h (1 Bft) SO 135 -6,0 C -4,3 C 3,9 km/h (1 Bft)
17.12.2018 04:54 20,8 C -4,3 C 1,5 C 41 % 88 % 1013,4 hPa 0,0 l/m 2,3 km/h (1 Bft) O-SO 112 -6,0 C -4,3 C 3,9 km/h (1 Bft)
17.12.2018 04:52 20,8 C -4,3 C 1,5 C 41 % 88 % 1013,4 hPa 0,0 l/m 2,1 km/h (1 Bft) S 180 -6,0 C -4,3 C 5,0 km/h (1 Bft)
17.12.2018 04:50 20,8 C -4,3 C 1,5 C 41 % 88 % 1013,4 hPa 0,0 l/m 1,6 km/h (1 Bft) S 180 -6,0 C -4,3 C 5,0 km/h (1 Bft)
17.12.2018 04:48 20,8 C -4,3 C 1,5 C 41 % 88 % 1013,4 hPa 0,0 l/m 1,0 km/h (0 Bft) S-SW 202 -6,0 C -4,3 C 4,1 km/h (1 Bft)
17.12.2018 04:46 20,8 C -4,3 C 1,5 C 41 % 88 % 1013,4 hPa 0,0 l/m 1,0 km/h (0 Bft) S-SO 157 -6,0 C -4,3 C 4,1 km/h (1 Bft)
17.12.2018 04:44 20,8 C -4,3 C 1,5 C 41 % 88 % 1013,2 hPa 0,0 l/m 0,6 km/h (0 Bft) S 180 -6,0 C -4,3 C 3,1 km/h (1 Bft)
17.12.2018 04:42 20,8 C -4,3 C 1,5 C 41 % 88 % 1013,2 hPa 0,0 l/m 0,8 km/h (0 Bft) S 180 -6,0 C -4,3 C 0,0 km/h (0 Bft)
17.12.2018 04:40 20,8 C -4,3 C 1,5 C 41 % 88 % 1013,2 hPa 0,0 l/m 1,4 km/h (1 Bft) O-SO 112 -6,0 C -4,3 C 2,1 km/h (1 Bft)
17.12.2018 04:38 20,8 C -4,3 C 1,5 C 41 % 88 % 1013,2 hPa 0,0 l/m 2,6 km/h (1 Bft) S-SO 157 -6,0 C -4,3 C 2,1 km/h (1 Bft)
17.12.2018 04:36 20,8 C -4,3 C 1,5 C 41 % 88 % 1013,2 hPa 0,0 l/m 2,9 km/h (1 Bft) S-SO 157 -6,0 C -4,3 C 2,1 km/h (1 Bft)
17.12.2018 04:34 20,8 C -4,3 C 1,5 C 41 % 88 % 1013,2 hPa 0,0 l/m 3,4 km/h (1 Bft) SO 135 -6,0 C -4,3 C 2,9 km/h (1 Bft)
17.12.2018 04:32 20,8 C -4,3 C 1,5 C 41 % 88 % 1013,2 hPa 0,0 l/m 3,7 km/h (1 Bft) S 180 -6,0 C -4,3 C 4,2 km/h (1 Bft)
17.12.2018 04:30 20,8 C -4,3 C 1,5 C 41 % 88 % 1013,2 hPa 0,0 l/m 3,7 km/h (1 Bft) S-SW 202 -6,0 C -4,3 C 5,8 km/h (2 Bft)
17.12.2018 04:28 20,8 C -4,3 C 1,5 C 41 % 88 % 1013,2 hPa 0,0 l/m 3,2 km/h (1 Bft) SW 225 -6,0 C -4,3 C 5,8 km/h (2 Bft)
17.12.2018 04:26 20,8 C -4,3 C 1,5 C 41 % 88 % 1013,2 hPa 0,0 l/m 2,6 km/h (1 Bft) S-SW 202 -6,0 C -4,3 C 5,4 km/h (1 Bft)
17.12.2018 04:24 20,8 C -4,3 C 1,5 C 41 % 88 % 1012,9 hPa 0,0 l/m 1,9 km/h (1 Bft) S 180 -6,0 C -4,3 C 5,2 km/h (1 Bft)
17.12.2018 04:22 20,8 C -4,3 C 1,5 C 41 % 88 % 1012,9 hPa 0,0 l/m 1,9 km/h (1 Bft) SW 225 -6,0 C -4,3 C 3,7 km/h (1 Bft)
17.12.2018 04:20 20,8 C -4,3 C 1,5 C 41 % 88 % 1012,9 hPa 0,0 l/m 2,1 km/h (1 Bft) SW 225 -6,0 C -4,3 C 2,3 km/h (1 Bft)
17.12.2018 04:18 20,8 C -4,3 C 1,5 C 41 % 88 % 1012,9 hPa 0,0 l/m 2,1 km/h (1 Bft) S 180 -6,0 C -4,3 C 2,3 km/h (1 Bft)
17.12.2018 04:16 20,8 C -4,3 C 1,5 C 41 % 88 % 1012,9 hPa 0,0 l/m 2,1 km/h (1 Bft) S-SO 157 -6,0 C -4,3 C 3,1 km/h (1 Bft)
17.12.2018 04:14 20,8 C -4,3 C 1,5 C 41 % 88 % 1012,9 hPa 0,0 l/m 2,1 km/h (1 Bft) S 180 -6,0 C -4,3 C 4,2 km/h (1 Bft)
17.12.2018 04:12 20,9 C -4,3 C 1,5 C 41 % 88 % 1012,9 hPa 0,0 l/m 2,3 km/h (1 Bft) S 180 -6,0 C -4,3 C 4,2 km/h (1 Bft)
17.12.2018 04:10 20,9 C -4,3 C 1,5 C 41 % 88 % 1012,9 hPa 0,0 l/m 2,7 km/h (1 Bft) S-SW 202 -6,0 C -4,3 C 3,5 km/h (1 Bft)
17.12.2018 04:08 20,9 C -4,3 C 1,5 C 41 % 88 % 1012,9 hPa 0,0 l/m 3,5 km/h (1 Bft) S-SW 202 -6,0 C -4,3 C 3,5 km/h (1 Bft)
17.12.2018 04:06 20,9 C -4,3 C 1,5 C 41 % 88 % 1012,9 hPa 0,0 l/m 5,3 km/h (1 Bft) S-SO 157 -6,0 C -6,6 C 1,9 km/h (1 Bft)
17.12.2018 04:04 20,9 C -4,3 C 1,5 C 41 % 88 % 1013,2 hPa 0,0 l/m 5,6 km/h (1 Bft) O-SO 112 -6,0 C -6,8 C 6,2 km/h (2 Bft)
17.12.2018 04:02 20,9 C -4,3 C 1,5 C 41 % 88 % 1013,2 hPa 0,0 l/m 6,4 km/h (2 Bft) NO 45 -6,0 C -7,1 C 8,9 km/h (2 Bft)
17.12.2018 04:00 20,9 C -4,3 C 1,5 C 41 % 88 % 1013,2 hPa 0,0 l/m 6,0 km/h (2 Bft) NO 45 -6,0 C -7,0 C 8,9 km/h (2 Bft)
17.12.2018 03:58 20,9 C -4,3 C 1,5 C 41 % 88 % 1013,2 hPa 0,0 l/m 6,0 km/h (2 Bft) NO 45 -6,0 C -7,0 C 9,5 km/h (2 Bft)
17.12.2018 03:56 20,9 C -4,3 C 1,5 C 41 % 88 % 1013,2 hPa 0,0 l/m 5,6 km/h (1 Bft) N-NO 22 -6,0 C -6,8 C 9,5 km/h (2 Bft)
17.12.2018 03:54 20,9 C -4,3 C 1,5 C 41 % 88 % 1013,2 hPa 0,0 l/m 5,3 km/h (1 Bft) N-NO 22 -6,0 C -6,6 C 8,5 km/h (2 Bft)
17.12.2018 03:52 20,9 C -4,3 C 1,5 C 41 % 88 % 1013,2 hPa 0,0 l/m 4,3 km/h (1 Bft) N-NO 22 -6,0 C -4,3 C 7,5 km/h (2 Bft)
17.12.2018 03:50 20,9 C -4,3 C 1,5 C 41 % 88 % 1013,2 hPa 0,0 l/m 3,4 km/h (1 Bft) N 360 -6,0 C -4,3 C 5,4 km/h (1 Bft)
17.12.2018 03:48 20,9 C -4,3 C 1,5 C 41 % 88 % 1013,2 hPa 0,0 l/m 3,1 km/h (1 Bft) N-NO 22 -6,0 C -4,3 C 6,8 km/h (2 Bft)
17.12.2018 03:46 20,9 C -4,3 C 1,5 C 41 % 88 % 1013,2 hPa 0,0 l/m 2,1 km/h (1 Bft) N 360 -6,0 C -4,3 C 6,8 km/h (2 Bft)
17.12.2018 03:44 21,0 C -4,3 C 1,5 C 41 % 88 % 1012,9 hPa 0,0 l/m 2,3 km/h (1 Bft) N-NO 22 -6,0 C -4,3 C 6,8 km/h (2 Bft)
17.12.2018 03:42 21,0 C -4,3 C 1,5 C 41 % 88 % 1012,9 hPa 0,0 l/m 2,6 km/h (1 Bft) N 360 -6,0 C -4,3 C 0,0 km/h (0 Bft)
17.12.2018 03:40 21,0 C -4,3 C 1,5 C 41 % 88 % 1012,9 hPa 0,0 l/m 3,5 km/h (1 Bft) NW 315 -6,0 C -4,3 C 3,5 km/h (1 Bft)
17.12.2018 03:38 21,0 C -4,3 C 1,5 C 41 % 88 % 1012,9 hPa 0,0 l/m 5,1 km/h (1 Bft) NW 315 -6,0 C -6,5 C 3,5 km/h (1 Bft)
17.12.2018 03:36 21,0 C -4,3 C 1,5 C 41 % 88 % 1012,9 hPa 0,0 l/m 6,9 km/h (2 Bft) W 270 -6,0 C -7,4 C 7,1 km/h (2 Bft)
17.12.2018 03:34 21,0 C -4,3 C 1,5 C 41 % 88 % 1012,9 hPa 0,0 l/m 8,0 km/h (2 Bft) W 270 -6,0 C -7,8 C 7,1 km/h (2 Bft)
17.12.2018 03:32 21,0 C -4,3 C 1,5 C 41 % 88 % 1012,9 hPa 0,0 l/m 9,3 km/h (2 Bft) N-NW 337 -6,0 C -8,2 C 8,7 km/h (2 Bft)
17.12.2018 03:30 21,0 C -4,3 C 1,5 C 41 % 88 % 1012,9 hPa 0,0 l/m 9,8 km/h (2 Bft) N-NO 22 -6,0 C -8,4 C 13,5 km/h (3 Bft)
17.12.2018 03:28 21,0 C -4,3 C 1,6 C 41 % 88 % 1012,9 hPa 0,0 l/m 9,8 km/h (2 Bft) N-NO 22 -6,0 C -8,4 C 13,5 km/h (3 Bft)
17.12.2018 03:26 21,0 C -4,3 C 1,6 C 41 % 88 % 1012,9 hPa 0,0 l/m 9,8 km/h (2 Bft) N-NO 22 -6,0 C -8,4 C 16,8 km/h (3 Bft)
17.12.2018 03:24 21,0 C -4,3 C 1,6 C 41 % 88 % 1013,0 hPa 0,0 l/m 9,7 km/h (2 Bft) N-NO 22 -6,0 C -8,4 C 16,2 km/h (3 Bft)
17.12.2018 03:22 21,0 C -4,3 C 1,6 C 41 % 88 % 1013,0 hPa 0,0 l/m 9,2 km/h (2 Bft) NO 45 -6,0 C -8,2 C 14,7 km/h (3 Bft)
17.12.2018 03:20 21,0 C -4,3 C 1,5 C 41 % 88 % 1013,0 hPa 0,0 l/m 8,9 km/h (2 Bft) N-NO 22 -6,0 C -8,1 C 14,7 km/h (3 Bft)
17.12.2018 03:18 21,0 C -4,3 C 1,5 C 41 % 88 % 1013,0 hPa 0,0 l/m 8,4 km/h (2 Bft) N-NO 22 -6,0 C -7,9 C 11,4 km/h (2 Bft)
17.12.2018 03:16 21,0 C -4,3 C 1,5 C 41 % 88 % 1013,0 hPa 0,0 l/m 8,4 km/h (2 Bft) NO 45 -6,0 C -7,9 C 12,2 km/h (2 Bft)
17.12.2018 03:14 21,0 C -4,3 C 1,5 C 41 % 88 % 1013,0 hPa 0,0 l/m 8,2 km/h (2 Bft) N-NO 22 -6,0 C -7,9 C 12,2 km/h (2 Bft)
17.12.2018 03:12 21,0 C -4,3 C 1,5 C 41 % 88 % 1013,0 hPa 0,0 l/m 6,0 km/h (2 Bft) N-NO 22 -6,0 C -7,0 C 9,1 km/h (2 Bft)
17.12.2018 03:10 21,0 C -4,3 C 1,5 C 41 % 88 % 1013,0 hPa 0,0 l/m 6,0 km/h (2 Bft) N-NO 22 -6,0 C -7,0 C 9,1 km/h (2 Bft)
17.12.2018 03:08 21,0 C -4,3 C 1,5 C 41 % 88 % 1013,0 hPa 0,0 l/m 6,0 km/h (2 Bft) N-NO 22 -6,0 C -7,0 C 9,1 km/h (2 Bft)
17.12.2018 03:06 21,0 C -4,3 C 1,5 C 40 % 88 % 1013,0 hPa 0,0 l/m 6,0 km/h (2 Bft) N-NO 22 -6,0 C -7,0 C 9,1 km/h (2 Bft)
17.12.2018 03:04 21,0 C -4,3 C 1,5 C 41 % 88 % 1013,2 hPa 0,0 l/m 6,0 km/h (2 Bft) N-NO 22 -6,0 C -7,0 C 9,1 km/h (2 Bft)
17.12.2018 03:02 21,0 C -4,3 C 1,5 C 41 % 88 % 1013,2 hPa 0,0 l/m 5,5 km/h (1 Bft) N-NO 22 -6,0 C -6,7 C 9,8 km/h (2 Bft)
17.12.2018 03:00 21,0 C -4,3 C 1,5 C 41 % 88 % 1013,2 hPa 0,0 l/m 5,1 km/h (1 Bft) N-NO 22 -6,0 C -6,5 C 9,8 km/h (2 Bft)
17.12.2018 02:58 21,0 C -4,3 C 1,5 C 41 % 88 % 1013,2 hPa 0,0 l/m 4,5 km/h (1 Bft) N-NO 22 -6,0 C -4,3 C 7,3 km/h (2 Bft)
17.12.2018 02:56 21,0 C -4,3 C 1,5 C 41 % 88 % 1013,2 hPa 0,0 l/m 4,0 km/h (1 Bft) N 360 -6,0 C -4,3 C 7,3 km/h (2 Bft)
17.12.2018 02:54 21,0 C -4,3 C 1,5 C 41 % 88 % 1013,2 hPa 0,0 l/m 3,7 km/h (1 Bft) N-NO 22 -6,0 C -4,3 C 7,3 km/h (2 Bft)
17.12.2018 02:52 21,0 C -4,3 C 1,5 C 41 % 88 % 1013,2 hPa 0,0 l/m 3,2 km/h (1 Bft) N 360 -6,0 C -4,3 C 6,6 km/h (2 Bft)
17.12.2018 02:50 21,0 C -4,3 C 1,5 C 41 % 88 % 1013,2 hPa 0,0 l/m 2,4 km/h (1 Bft) N 360 -6,0 C -4,3 C 4,4 km/h (1 Bft)
17.12.2018 02:48 21,0 C -4,3 C 1,5 C 41 % 88 % 1013,2 hPa 0,0 l/m 1,9 km/h (1 Bft) NO 45 -6,0 C -4,3 C 4,2 km/h (1 Bft)
17.12.2018 02:46 21,0 C -4,3 C 1,5 C 41 % 88 % 1013,2 hPa 0,0 l/m 1,8 km/h (1 Bft) N-NO 22 -6,0 C -4,3 C 4,2 km/h (1 Bft)
17.12.2018 02:44 21,0 C -4,3 C 1,5 C 41 % 88 % 1013,1 hPa 0,0 l/m 1,8 km/h (1 Bft) N-NO 22 -6,0 C -4,3 C 3,3 km/h (1 Bft)
17.12.2018 02:42 21,0 C -4,3 C 1,5 C 40 % 88 % 1013,1 hPa 0,0 l/m 1,9 km/h (1 Bft) N-NO 22 -6,0 C -4,3 C 3,3 km/h (1 Bft)
17.12.2018 02:40 21,0 C -4,3 C 1,5 C 40 % 88 % 1013,1 hPa 0,0 l/m 2,1 km/h (1 Bft) NO 45 -6,0 C -4,3 C 2,9 km/h (1 Bft)
17.12.2018 02:38 21,0 C -4,3 C 1,5 C 40 % 88 % 1013,1 hPa 0,0 l/m 2,7 km/h (1 Bft) N-NO 22 -6,0 C -4,3 C 1,9 km/h (1 Bft)
17.12.2018 02:36 21,0 C -4,3 C 1,5 C 40 % 88 % 1013,1 hPa 0,0 l/m 3,4 km/h (1 Bft) N-NW 337 -6,0 C -4,3 C 3,3 km/h (1 Bft)
17.12.2018 02:34 21,1 C -4,3 C 1,5 C 40 % 88 % 1013,1 hPa 0,0 l/m 3,7 km/h (1 Bft) N-NW 337 -6,0 C -4,3 C 3,3 km/h (1 Bft)
17.12.2018 02:32 21,1 C -4,3 C 1,5 C 40 % 88 % 1013,1 hPa 0,0 l/m 3,5 km/h (1 Bft) N-NW 337 -6,0 C -4,3 C 5,4 km/h (1 Bft)
17.12.2018 02:30 21,1 C -4,3 C 1,5 C 40 % 88 % 1013,1 hPa 0,0 l/m 3,5 km/h (1 Bft) N 360 -6,0 C -4,3 C 5,6 km/h (1 Bft)
17.12.2018 02:28 21,0 C -4,3 C 1,5 C 40 % 88 % 1013,1 hPa 0,0 l/m 3,5 km/h (1 Bft) N 360 -6,0 C -4,3 C 6,4 km/h (2 Bft)
17.12.2018 02:26 21,0 C -4,3 C 1,5 C 40 % 88 % 1013,1 hPa 0,0 l/m 3,2 km/h (1 Bft) N-NW 337 -6,0 C -4,3 C 6,4 km/h (2 Bft)
17.12.2018 02:24 21,1 C -4,3 C 1,5 C 40 % 88 % 1013,1 hPa 0,0 l/m 3,7 km/h (1 Bft) N 360 -6,0 C -4,3 C 1,9 km/h (1 Bft)
17.12.2018 02:22 21,1 C -4,3 C 1,5 C 40 % 88 % 1013,1 hPa 0,0 l/m 3,7 km/h (1 Bft) N 360 -6,0 C -4,3 C 5,8 km/h (2 Bft)
17.12.2018 02:20 21,1 C -4,3 C 1,5 C 40 % 88 % 1013,1 hPa 0,0 l/m 4,3 km/h (1 Bft) N-NO 22 -6,0 C -4,3 C 5,8 km/h (2 Bft)
17.12.2018 02:18 21,1 C -4,3 C 1,5 C 40 % 88 % 1013,1 hPa 0,0 l/m 4,2 km/h (1 Bft) N-NO 22 -6,0 C -4,3 C 5,0 km/h (1 Bft)
17.12.2018 02:16 21,1 C -4,3 C 1,5 C 40 % 88 % 1013,1 hPa 0,0 l/m 4,3 km/h (1 Bft) NO 45 -6,0 C -4,3 C 6,4 km/h (2 Bft)
17.12.2018 02:14 21,1 C -4,3 C 1,5 C 40 % 88 % 1013,1 hPa 0,0 l/m 4,8 km/h (1 Bft) N-NO 22 -6,0 C -6,4 C 8,3 km/h (2 Bft)
17.12.2018 02:12 21,1 C -4,3 C 1,5 C 40 % 88 % 1013,1 hPa 0,0 l/m 5,3 km/h (1 Bft) N-NO 22 -6,0 C -6,6 C 8,3 km/h (2 Bft)
17.12.2018 02:10 21,1 C -4,3 C 1,5 C 40 % 88 % 1013,1 hPa 0,0 l/m 5,5 km/h (1 Bft) N-NW 337 -6,0 C -6,7 C 4,8 km/h (1 Bft)
17.12.2018 02:08 21,1 C -4,3 C 1,5 C 40 % 88 % 1013,1 hPa 0,0 l/m 6,3 km/h (2 Bft) NO 45 -6,0 C -7,1 C 6,6 km/h (2 Bft)
17.12.2018 02:06 21,1 C -4,3 C 1,5 C 40 % 88 % 1013,1 hPa 0,0 l/m 7,1 km/h (2 Bft) N-NO 22 -6,0 C -7,4 C 7,9 km/h (2 Bft)
17.12.2018 02:04 21,1 C -4,3 C 1,5 C 40 % 88 % 1012,9 hPa 0,0 l/m 7,9 km/h (2 Bft) NO 45 -6,0 C -7,8 C 8,1 km/h (2 Bft)
17.12.2018 02:02 21,1 C -4,3 C 1,5 C 40 % 88 % 1012,9 hPa 0,0 l/m 8,4 km/h (2 Bft) N-NO 22 -6,0 C -7,9 C 11,8 km/h (2 Bft)
17.12.2018 02:00 21,1 C -4,3 C 1,5 C 40 % 88 % 1012,9 hPa 0,0 l/m 8,7 km/h (2 Bft) N-NO 22 -6,0 C -8,0 C 11,8 km/h (2 Bft)
17.12.2018 01:58 21,1 C -4,3 C 1,5 C 40 % 88 % 1012,9 hPa 0,0 l/m 9,2 km/h (2 Bft) N 360 -6,0 C -8,2 C 13,9 km/h (3 Bft)
17.12.2018 01:56 21,2 C -4,3 C 1,6 C 40 % 88 % 1012,9 hPa 0,0 l/m 9,3 km/h (2 Bft) N-NO 22 -6,0 C -8,2 C 13,9 km/h (3 Bft)
17.12.2018 01:54 21,1 C -4,3 C 1,6 C 40 % 88 % 1012,9 hPa 0,0 l/m 9,3 km/h (2 Bft) N-NO 22 -6,0 C -8,2 C 13,9 km/h (3 Bft)
17.12.2018 01:52 21,2 C -4,3 C 1,6 C 40 % 88 % 1012,9 hPa 0,0 l/m 9,2 km/h (2 Bft) N-NO 22 -6,0 C -8,2 C 13,9 km/h (3 Bft)
17.12.2018 01:50 21,2 C -4,3 C 1,5 C 40 % 88 % 1012,9 hPa 0,0 l/m 9,2 km/h (2 Bft) N 360 -6,0 C -8,2 C 14,3 km/h (3 Bft)
17.12.2018 01:48 21,1 C -4,3 C 1,5 C 40 % 88 % 1012,9 hPa 0,0 l/m 9,0 km/h (2 Bft) N-NO 22 -6,0 C -8,1 C 14,3 km/h (3 Bft)
17.12.2018 01:46 21,2 C -4,3 C 1,5 C 40 % 88 % 1012,9 hPa 0,0 l/m 9,0 km/h (2 Bft) N-NO 22 -6,0 C -8,1 C 13,9 km/h (3 Bft)
17.12.2018 01:44 21,1 C -4,3 C 1,5 C 40 % 88 % 1012,8 hPa 0,0 l/m 8,9 km/h (2 Bft) N-NO 22 -6,0 C -8,1 C 13,7 km/h (3 Bft)
17.12.2018 01:42 21,2 C -4,3 C 1,5 C 40 % 88 % 1012,8 hPa 0,0 l/m 9,3 km/h (2 Bft) N-NO 22 -6,0 C -8,2 C 13,7 km/h (3 Bft)
17.12.2018 01:40 21,2 C -4,3 C 1,5 C 40 % 88 % 1012,8 hPa 0,0 l/m 9,2 km/h (2 Bft) N-NO 22 -6,0 C -8,2 C 12,4 km/h (3 Bft)
17.12.2018 01:38 21,2 C -4,3 C 1,5 C 40 % 88 % 1012,8 hPa 0,0 l/m 9,2 km/h (2 Bft) N-NO 22 -6,0 C -8,2 C 12,4 km/h (3 Bft)
17.12.2018 01:36 21,2 C -4,3 C 1,5 C 40 % 88 % 1012,8 hPa 0,0 l/m 9,5 km/h (2 Bft) N-NO 22 -6,0 C -8,3 C 15,8 km/h (3 Bft)
17.12.2018 01:34 21,2 C -4,3 C 1,5 C 40 % 88 % 1012,8 hPa 0,0 l/m 9,5 km/h (2 Bft) NO 45 -6,0 C -8,3 C 13,5 km/h (3 Bft)
17.12.2018 01:32 21,2 C -4,3 C 1,5 C 40 % 88 % 1012,8 hPa 0,0 l/m 10,0 km/h (2 Bft) N-NO 22 -6,0 C -8,5 C 14,9 km/h (3 Bft)
17.12.2018 01:30 21,2 C -4,3 C 1,5 C 40 % 88 % 1012,8 hPa 0,0 l/m 9,7 km/h (2 Bft) N-NO 22 -6,0 C -8,4 C 14,9 km/h (3 Bft)
17.12.2018 01:28 21,2 C -4,3 C 1,5 C 40 % 88 % 1012,8 hPa 0,0 l/m 9,7 km/h (2 Bft) N-NO 22 -6,0 C -8,4 C 15,8 km/h (3 Bft)
17.12.2018 01:26 21,2 C -4,3 C 1,5 C 40 % 88 % 1012,8 hPa 0,0 l/m 9,2 km/h (2 Bft) N-NO 22 -6,0 C -8,2 C 15,8 km/h (3 Bft)
17.12.2018 01:24 21,2 C -4,3 C 1,5 C 40 % 88 % 1013,0 hPa 0,0 l/m 8,0 km/h (2 Bft) NO 45 -6,0 C -7,8 C 12,7 km/h (3 Bft)
17.12.2018 01:22 21,2 C -4,3 C 1,5 C 40 % 88 % 1013,0 hPa 0,0 l/m 6,9 km/h (2 Bft) N 360 -6,0 C -7,4 C 11,6 km/h (2 Bft)
17.12.2018 01:20 21,2 C -4,3 C 1,5 C 40 % 88 % 1013,0 hPa 0,0 l/m 6,4 km/h (2 Bft) N-NO 22 -6,0 C -7,1 C 11,6 km/h (2 Bft)
17.12.2018 01:18 21,2 C -4,3 C 1,5 C 40 % 88 % 1013,0 hPa 0,0 l/m 5,8 km/h (2 Bft) N-NO 22 -6,0 C -6,9 C 8,5 km/h (2 Bft)
17.12.2018 01:16 21,2 C -4,3 C 1,5 C 40 % 88 % 1013,0 hPa 0,0 l/m 5,8 km/h (2 Bft) N-NO 22 -6,0 C -6,9 C 8,5 km/h (2 Bft)
17.12.2018 01:14 21,2 C -4,3 C 1,5 C 40 % 88 % 1013,0 hPa 0,0 l/m 6,1 km/h (2 Bft) NO 45 -6,0 C -7,0 C 8,5 km/h (2 Bft)
17.12.2018 01:12 21,2 C -4,3 C 1,5 C 40 % 88 % 1013,0 hPa 0,0 l/m 6,3 km/h (2 Bft) N-NO 22 -6,0 C -7,1 C 8,5 km/h (2 Bft)
17.12.2018 01:10 21,2 C -4,3 C 1,5 C 40 % 88 % 1013,0 hPa 0,0 l/m 5,8 km/h (2 Bft) N-NO 22 -6,0 C -6,9 C 8,3 km/h (2 Bft)
17.12.2018 01:08 21,2 C -4,3 C 1,5 C 40 % 88 % 1013,0 hPa 0,0 l/m 5,8 km/h (2 Bft) N-NO 22 -6,0 C -6,9 C 8,3 km/h (2 Bft)
17.12.2018 01:06 21,2 C -4,3 C 1,5 C 40 % 88 % 1013,0 hPa 0,0 l/m 5,8 km/h (2 Bft) N-NO 22 -6,0 C -6,9 C 8,5 km/h (2 Bft)
17.12.2018 01:04 21,2 C -4,3 C 1,5 C 40 % 88 % 1013,1 hPa 0,0 l/m 5,6 km/h (1 Bft) N-NO 22 -6,0 C -6,8 C 8,5 km/h (2 Bft)
17.12.2018 01:02 21,2 C -4,3 C 1,5 C 40 % 88 % 1013,1 hPa 0,0 l/m 5,0 km/h (1 Bft) N-NO 22 -6,0 C -6,5 C 8,3 km/h (2 Bft)
17.12.2018 01:00 21,2 C -4,3 C 1,5 C 40 % 88 % 1013,1 hPa 0,0 l/m 4,7 km/h (1 Bft) N-NO 22 -6,0 C -6,3 C 7,3 km/h (2 Bft)
17.12.2018 00:58 21,2 C -4,3 C 1,5 C 40 % 88 % 1013,1 hPa 0,0 l/m 4,5 km/h (1 Bft) N-NO 22 -6,0 C -4,3 C 6,8 km/h (2 Bft)
17.12.2018 00:56 21,2 C -4,3 C 1,5 C 40 % 88 % 1013,1 hPa 0,0 l/m 4,5 km/h (1 Bft) N-NO 22 -6,0 C -4,3 C 6,8 km/h (2 Bft)
17.12.2018 00:54 21,3 C -4,3 C 1,5 C 40 % 88 % 1013,1 hPa 0,0 l/m 4,7 km/h (1 Bft) N-NO 22 -6,0 C -6,3 C 6,0 km/h (2 Bft)
17.12.2018 00:52 21,3 C -4,3 C 1,5 C 40 % 88 % 1013,1 hPa 0,0 l/m 4,7 km/h (1 Bft) NO 45 -6,0 C -6,3 C 5,2 km/h (1 Bft)
17.12.2018 00:50 21,3 C -4,3 C 1,5 C 40 % 88 % 1013,1 hPa 0,0 l/m 5,0 km/h (1 Bft) N-NO 22 -6,0 C -6,5 C 7,0 km/h (2 Bft)
17.12.2018 00:48 21,3 C -4,3 C 1,5 C 40 % 88 % 1013,1 hPa 0,0 l/m 5,1 km/h (1 Bft) N-NO 22 -6,0 C -6,5 C 7,0 km/h (2 Bft)
17.12.2018 00:46 21,3 C -4,3 C 1,5 C 40 % 88 % 1013,1 hPa 0,0 l/m 5,6 km/h (1 Bft) N-NO 22 -6,0 C -6,8 C 6,6 km/h (2 Bft)
17.12.2018 00:44 21,3 C -4,3 C 1,5 C 40 % 88 % 1013,2 hPa 0,0 l/m 6,0 km/h (2 Bft) N-NO 22 -6,0 C -7,0 C 6,0 km/h (2 Bft)
17.12.2018 00:42 21,3 C -4,3 C 1,5 C 40 % 88 % 1013,2 hPa 0,0 l/m 6,8 km/h (2 Bft) N-NO 22 -6,0 C -7,3 C 6,8 km/h (2 Bft)
17.12.2018 00:40 21,3 C -4,3 C 1,5 C 40 % 88 % 1013,2 hPa 0,0 l/m 7,2 km/h (2 Bft) N-NO 22 -6,0 C -7,5 C 9,8 km/h (2 Bft)
17.12.2018 00:38 21,3 C -4,3 C 1,5 C 40 % 88 % 1013,2 hPa 0,0 l/m 7,9 km/h (2 Bft) N-NO 22 -6,0 C -7,8 C 9,8 km/h (2 Bft)
17.12.2018 00:36 21,3 C -4,3 C 1,5 C 40 % 88 % 1013,2 hPa 0,0 l/m 8,0 km/h (2 Bft) N-NO 22 -6,0 C -7,8 C 12,0 km/h (2 Bft)
17.12.2018 00:34 21,3 C -4,3 C 1,5 C 40 % 88 % 1013,2 hPa 0,0 l/m 7,9 km/h (2 Bft) N-NO 22 -6,0 C -7,8 C 10,2 km/h (2 Bft)
17.12.2018 00:32 21,2 C -4,3 C 1,5 C 40 % 88 % 1013,2 hPa 0,0 l/m 7,7 km/h (2 Bft) N-NO 22 -6,0 C -7,7 C 12,0 km/h (2 Bft)
17.12.2018 00:30 21,2 C -4,3 C 1,5 C 40 % 88 % 1013,2 hPa 0,0 l/m 7,4 km/h (2 Bft) N-NO 22 -6,0 C -7,6 C 12,0 km/h (2 Bft)
17.12.2018 00:28 21,2 C -4,3 C 1,5 C 40 % 88 % 1013,2 hPa 0,0 l/m 7,2 km/h (2 Bft) N-NO 22 -6,0 C -7,5 C 10,2 km/h (2 Bft)
17.12.2018 00:26 21,2 C -4,3 C 1,5 C 40 % 88 % 1013,2 hPa 0,0 l/m 7,2 km/h (2 Bft) N-NO 22 -6,0 C -7,5 C 10,2 km/h (2 Bft)
17.12.2018 00:24 21,2 C -4,3 C 1,5 C 40 % 88 % 1013,2 hPa 0,0 l/m 7,1 km/h (2 Bft) N-NO 22 -6,0 C -7,4 C 10,0 km/h (2 Bft)
17.12.2018 00:22 21,2 C -4,3 C 1,5 C 40 % 88 % 1013,2 hPa 0,0 l/m 7,4 km/h (2 Bft) N-NO 22 -6,0 C -7,6 C 9,3 km/h (2 Bft)
17.12.2018 00:20 21,2 C -4,3 C 1,5 C 40 % 88 % 1013,2 hPa 0,0 l/m 7,6 km/h (2 Bft) N-NO 22 -6,0 C -7,6 C 11,0 km/h (2 Bft)
17.12.2018 00:18 21,2 C -4,3 C 1,5 C 40 % 88 % 1013,2 hPa 0,0 l/m 7,6 km/h (2 Bft) N-NO 22 -6,0 C -7,6 C 11,0 km/h (2 Bft)
17.12.2018 00:16 21,2 C -4,3 C 1,5 C 40 % 88 % 1013,2 hPa 0,0 l/m 7,4 km/h (2 Bft) N-NO 22 -6,0 C -7,6 C 11,0 km/h (2 Bft)
17.12.2018 00:14 21,2 C -4,3 C 1,5 C 40 % 88 % 1013,2 hPa 0,0 l/m 7,4 km/h (2 Bft) NO 45 -6,0 C -7,6 C 10,4 km/h (2 Bft)
17.12.2018 00:12 21,4 C -4,3 C 1,5 C 40 % 88 % 1013,2 hPa 0,0 l/m 9,0 km/h (2 Bft) N-NO 22 -6,0 C -8,1 C 9,3 km/h (2 Bft)
17.12.2018 00:10 21,2 C -4,3 C 1,5 C 40 % 88 % 1013,2 hPa 0,0 l/m 9,0 km/h (2 Bft) N-NO 22 -6,0 C -8,1 C 9,3 km/h (2 Bft)
17.12.2018 00:08 21,2 C -4,3 C 1,5 C 40 % 88 % 1013,2 hPa 0,0 l/m 9,0 km/h (2 Bft) N-NO 22 -6,0 C -8,1 C 9,3 km/h (2 Bft)
17.12.2018 00:06 21,2 C -4,3 C 1,5 C 40 % 88 % 1013,2 hPa 0,0 l/m 9,0 km/h (2 Bft) N-NO 22 -6,0 C -8,1 C 9,3 km/h (2 Bft)
17.12.2018 00:04 21,4 C -4,3 C 1,5 C 40 % 88 % 1013,1 hPa 0,0 l/m 9,0 km/h (2 Bft) N-NO 22 -6,0 C -8,1 C 10,2 km/h (2 Bft)
17.12.2018 00:02 21,4 C -4,3 C 1,5 C 40 % 88 % 1013,1 hPa 0,0 l/m 9,3 km/h (2 Bft) N-NO 22 -6,0 C -8,2 C 11,0 km/h (2 Bft)
17.12.2018 00:00 21,4 C -4,3 C 1,5 C 40 % 88 % 1013,1 hPa 0,0 l/m 9,5 km/h (2 Bft) N-NO 22 -6,0 C -8,3 C 11,0 km/h (2 Bft)
_ Min-Zeit 04:14 00:00 00:00 00:00 08:22 01:26 - 05:34 - - 08:22 01:32 03:42
Minimum _ 20,8 C -4,3 C 1,5 C 40 % 4 % 1012,8 hPa - 0,0 km/h (0 Bft) - - -37,2 C -8,5 C 0,0 km/h (0 Bft)
_ Max-Zeit 10:30 08:22 01:52 02:44 00:00 10:26 00:00 01:32 - - 00:00 08:22 03:26
Maximum _ 21,9 C 0,0 C 1,6 C 41 % 88 % 1017,9 hPa 0,0 l/m 10,0 km/h
N-NO (2 Bft)
- - -6,0 C 0,0 C 16,8 km/h
N-NO (3 Bft)
Durchschnitt _ 21,3 C -3,0 C 1,5 C 41 % 63 % 1014,7 hPa #0,0 l/m 3,8 km/h (1 Bft) N-NO - -15,2 C -4,0 C 5,5 km/h (1 Bft)